Location: Alpine
(43.1636°N, 111.0180°W)
Time: 03:59:49
(UTC+00:00)

Tiros 1 despin weight - Pass Details

Date: 27 May 2022
Orbit: 591 x 639 km, 48.2° (Epoch: 30 June)

Event Time Altitude Azimuth Distance (km) Brightness Sun altitude
Rises 06:41:24 0° 294° (WNW) 2,837 ? -24.9°
Reaches altitude 10° 06:43:43 10° 291° (WNW) 1,927 ? -25.0°
Enters shadow 06:46:35 38° 275° (W) 910 ? -25.0°
Maximum altitude 06:48:04 62° 211° (SSW) 667 - -25.1°
Drops below altitude 10° 06:52:23 10° 131° (SE) 1,911 - -25.2°
Sets 06:54:40 0° 128° (SE) 2,810 - -25.2°
